TimeEST,TemperatureF,Dew PointF,Humidity,Sea Level PressureIn,VisibilityMPH,Wind Direction,Wind SpeedMPH,Gust SpeedMPH,PrecipitationIn,Events,Conditions,WindDirDegrees,DateUTC
12:53 AM,72.0,64.9,78,30.08,10.0,NW,3.5,-,N/A,,Mostly Cloudy,320,2012-11-14 05:53:00
1:53 AM,70.0,66.0,87,30.07,10.0,Calm,Calm,-,N/A,,Partly Cloudy,0,2012-11-14 06:53:00
2:53 AM,69.1,66.0,90,30.06,10.0,NNW,4.6,-,N/A,,Scattered Clouds,340,2012-11-14 07:53:00
3:53 AM,66.9,64.9,93,30.07,10.0,Calm,Calm,-,N/A,,Partly Cloudy,0,2012-11-14 08:53:00
4:53 AM,68.0,64.9,90,30.06,10.0,North,3.5,-,N/A,,Partly Cloudy,350,2012-11-14 09:53:00
5:53 AM,68.0,64.9,90,30.07,10.0,North,4.6,-,N/A,,Partly Cloudy,350,2012-11-14 10:53:00
6:53 AM,68.0,64.9,90,30.09,10.0,NNW,4.6,-,N/A,,Partly Cloudy,340,2012-11-14 11:53:00
7:53 AM,71.1,66.0,84,30.10,10.0,North,5.8,-,N/A,,Scattered Clouds,350,2012-11-14 12:53:00
8:53 AM,75.9,68.0,76,30.12,10.0,NE,8.1,-,N/A,,Mostly Cloudy,50,2012-11-14 13:53:00
9:01 AM,77.0,68.0,74,30.12,10.0,Calm,Calm,-,N/A,,Overcast,0,2012-11-14 14:01:00
9:21 AM,78.8,66.2,65,30.12,10.0,NE,10.4,-,N/A,,Overcast,50,2012-11-14 14:21:00
9:53 AM,79.0,66.0,64,30.12,10.0,ENE,15.0,-,N/A,,Scattered Clouds,70,2012-11-14 14:53:00
10:53 AM,81.0,66.0,60,30.11,10.0,ENE,13.8,23.0,N/A,,Scattered Clouds,70,2012-11-14 15:53:00
11:53 AM,81.0,64.9,58,30.09,10.0,ENE,13.8,-,N/A,,Scattered Clouds,70,2012-11-14 16:53:00
12:53 PM,82.0,66.0,58,30.08,10.0,ENE,15.0,18.4,N/A,,Scattered Clouds,70,2012-11-14 17:53:00
1:53 PM,80.1,64.9,60,30.07,10.0,East,16.1,-,N/A,,Scattered Clouds,80,2012-11-14 18:53:00
2:53 PM,79.0,64.9,62,30.06,10.0,East,15.0,-,N/A,,Scattered Clouds,80,2012-11-14 19:53:00
3:53 PM,79.0,66.0,64,30.06,10.0,ENE,12.7,-,N/A,,Scattered Clouds,60,2012-11-14 20:53:00
4:53 PM,78.1,63.0,60,30.07,10.0,ENE,10.4,-,N/A,,Mostly Cloudy,60,2012-11-14 21:53:00
5:53 PM,75.9,63.0,64,30.07,10.0,ENE,6.9,-,N/A,,Scattered Clouds,60,2012-11-14 22:53:00
6:53 PM,75.0,62.1,64,30.09,10.0,NNE,4.6,-,N/A,,Clear,30,2012-11-14 23:53:00
7:53 PM,75.0,64.9,71,30.10,10.0,NE,3.5,-,N/A,,Scattered Clouds,40,2012-11-15 00:53:00
8:53 PM,75.0,64.9,71,30.10,10.0,NE,5.8,-,N/A,,Scattered Clouds,50,2012-11-15 01:53:00
9:53 PM,73.9,64.0,71,30.10,10.0,ENE,4.6,-,N/A,,Partly Cloudy,60,2012-11-15 02:53:00
10:53 PM,73.9,64.9,73,30.10,10.0,NE,5.8,-,N/A,,Partly Cloudy,50,2012-11-15 03:53:00
11:53 PM,73.0,64.0,73,30.09,10.0,ENE,5.8,-,N/A,,Partly Cloudy,70,2012-11-15 04:53:00